Погода в Мельниково

Россия / Томская область     56°33′22″N   84°04′47″E
темп.,
°C
ветер,
м/с
пор.,
м/с
влажн.,
%
обл.,
%
осадки,
мм/ч
давл.,
гПа
погр.,
м
23 сентября, чт
чт2301:00+2ююз1299100 2.0 1018629
04:00+2зсз1298100 0.6 1018372
07:00+2сз129999 0.6 1020249
10:00+3сз239699 0.1 1021440
13:00+4с128296 0.4 1021651
16:00+4ссз238598 0.5 1022546
19:00+1зсз258696 0.4 1023196
22:00−1з119323 0.0 102310
24 сентября, пт
пт2401:000юз2390100 0.0 102498
04:00+1юз2689100 0.0 1023191
07:00+1юз3891100 0.0 1023292
10:00+3зюз4883100 0.0 1023627
13:00+5зюз5871100 0.1 10221106
16:00+3юз51095100 0.3 1022808
19:00+3зюз41097100 0.6 1022718
22:00+3юз41097100 0.1 1021843
25 сентября, сб
сб2501:00+3юз4998100 1.1 1020805
04:00+3юз3798100 1.2 1019597
07:00+2зсз2592100 0.9 1022595
10:00+2сз2499100 1.0 1019252
13:00+2сз139997 1.4 1019175
16:00+4сз2378100 0.3 1019747
19:00+2ссв1291100 0.7 102042
22:000св2398100 0.1 102079
26 сентября, вс
вс2601:00−1ссв2599100 0.1 1019158
04:000ссв2695100 0.0 1019344
07:00+1с3896100 0.0 1019472
10:00+1с51097100 0.3 1018502
13:00+2ссв41098100 1.1 1018613
16:00+3ссв5995100 0.1 1020794
19:00+3ссв4993100 0.1 1021845
22:00+2ссв4996100 0.4 1022812
27 сентября, пн
пн2701:00+3ссв3899100 0.6 1023574
04:00+3ссв3698100 0.1 1024489
07:00+3ссв3897100 0.2 1025526
10:00+4ссв369098 0.0 1026512
13:00+5ссв3479100 0.0 1027804
16:00+6ссв347094 0.0 10271022
19:00+4ссв3783100 0.1 1028378
22:00+3ссв2693100 0.1 1028313